Year,Month,Day,Hour,Minute,Value (Times are PST for windgust in km/hr)
2016,11,20,00,00,4.80
2016,11,20,00,01,8.10
2016,11,20,00,02,3.20
2016,11,20,00,03,9.60
2016,11,20,00,04,11.30
2016,11,20,00,05,6.40
2016,11,20,00,06,6.40
2016,11,20,00,07,6.40
2016,11,20,00,08,4.80
2016,11,20,00,09,4.80
2016,11,20,00,10,8.10
2016,11,20,00,11,8.10
2016,11,20,00,12,6.40
2016,11,20,00,13,6.40
2016,11,20,00,14,6.40
2016,11,20,00,15,6.40
2016,11,20,00,16,6.40
2016,11,20,00,17,4.80
2016,11,20,00,18,4.80
2016,11,20,00,19,6.40
2016,11,20,00,20,8.10
2016,11,20,00,21,8.10
2016,11,20,00,22,8.10
2016,11,20,00,23,8.10
2016,11,20,00,24,6.40
2016,11,20,00,25,8.10
2016,11,20,00,26,8.10
2016,11,20,00,27,6.40
2016,11,20,00,28,4.80
2016,11,20,00,29,6.40
2016,11,20,00,30,6.40
2016,11,20,00,31,4.80
2016,11,20,00,32,3.20
2016,11,20,00,33,4.80
2016,11,20,00,34,4.80
2016,11,20,00,35,4.80
2016,11,20,00,36,8.10
2016,11,20,00,37,6.40
2016,11,20,00,38,3.20
2016,11,20,00,39,3.20
2016,11,20,00,40,3.20
2016,11,20,00,41,3.20
2016,11,20,00,42,3.20
2016,11,20,00,43,3.20
2016,11,20,00,44,4.80
2016,11,20,00,45,4.80
2016,11,20,00,46,4.80
2016,11,20,00,47,8.10
2016,11,20,00,48,8.10
2016,11,20,00,49,6.40
2016,11,20,00,50,8.10
2016,11,20,00,51,4.80
2016,11,20,00,52,4.80
2016,11,20,00,53,4.80
2016,11,20,00,54,3.20
2016,11,20,00,55,8.10
2016,11,20,00,56,6.40
2016,11,20,00,57,8.10
2016,11,20,00,58,6.40
2016,11,20,00,59,8.10
2016,11,20,01,00,6.40
2016,11,20,01,01,12.90
2016,11,20,01,02,11.30
2016,11,20,01,03,11.30
2016,11,20,01,04,8.10
2016,11,20,01,05,9.60
2016,11,20,01,06,11.30
2016,11,20,01,07,4.80
2016,11,20,01,08,4.80
2016,11,20,01,09,11.30
2016,11,20,01,10,14.50
2016,11,20,01,11,11.30
2016,11,20,01,12,12.90
2016,11,20,01,13,16.10
2016,11,20,01,14,14.50
2016,11,20,01,15,16.10
2016,11,20,01,16,11.30
2016,11,20,01,17,12.90
2016,11,20,01,18,12.90
2016,11,20,01,19,8.10
2016,11,20,01,20,14.50
2016,11,20,01,21,12.90
2016,11,20,01,22,17.70
2016,11,20,01,23,12.90
2016,11,20,01,24,8.10
2016,11,20,01,25,6.40
2016,11,20,01,26,9.60
2016,11,20,01,27,9.60
2016,11,20,01,28,9.60
2016,11,20,01,29,6.40
2016,11,20,01,30,4.80
2016,11,20,01,31,4.80
2016,11,20,01,32,6.40
2016,11,20,01,33,6.40
2016,11,20,01,34,4.80
2016,11,20,01,35,11.30
2016,11,20,01,36,9.60
2016,11,20,01,37,6.40
2016,11,20,01,38,6.40
2016,11,20,01,39,12.90
2016,11,20,01,40,11.30
2016,11,20,01,41,6.40
2016,11,20,01,42,12.90
2016,11,20,01,43,12.90
2016,11,20,01,44,16.10
2016,11,20,01,45,14.50
2016,11,20,01,46,14.50
2016,11,20,01,47,14.50
2016,11,20,01,48,14.50
2016,11,20,01,49,16.10
2016,11,20,01,50,12.90
2016,11,20,01,51,16.10
2016,11,20,01,52,16.10
2016,11,20,01,53,16.10
2016,11,20,01,54,19.30
2016,11,20,01,55,14.50
2016,11,20,01,56,16.10
2016,11,20,01,57,14.50
2016,11,20,01,58,17.70
2016,11,20,01,59,17.70
2016,11,20,02,00,16.10
2016,11,20,02,01,11.30
2016,11,20,02,02,12.90
2016,11,20,02,03,16.10
2016,11,20,02,04,11.30
2016,11,20,02,05,12.90
2016,11,20,02,06,14.50
2016,11,20,02,07,14.50
2016,11,20,02,08,16.10
2016,11,20,02,09,11.30
2016,11,20,02,10,16.10
2016,11,20,02,11,20.90
2016,11,20,02,12,14.50
2016,11,20,02,13,17.70
2016,11,20,02,14,16.10
2016,11,20,02,15,16.10
2016,11,20,02,16,16.10
2016,11,20,02,17,20.90
2016,11,20,02,18,16.10
2016,11,20,02,19,16.10
2016,11,20,02,20,14.50
2016,11,20,02,21,17.70
2016,11,20,02,22,16.10
2016,11,20,02,23,16.10
2016,11,20,02,24,19.30
2016,11,20,02,25,14.50
2016,11,20,02,26,16.10
2016,11,20,02,27,16.10
2016,11,20,02,28,12.90
2016,11,20,02,29,17.70
2016,11,20,02,30,14.50
2016,11,20,02,31,11.30
2016,11,20,02,32,16.10
2016,11,20,02,33,14.50
2016,11,20,02,34,12.90
2016,11,20,02,35,17.70
2016,11,20,02,36,20.90
2016,11,20,02,37,24.20
2016,11,20,02,38,14.50
2016,11,20,02,39,17.70
2016,11,20,02,40,19.30
2016,11,20,02,41,16.10
2016,11,20,02,42,14.50
2016,11,20,02,43,12.90
2016,11,20,02,44,16.10
2016,11,20,02,45,20.90
2016,11,20,02,46,20.90
2016,11,20,02,47,19.30
2016,11,20,02,48,20.90
2016,11,20,02,49,14.50
2016,11,20,02,50,20.90
2016,11,20,02,51,20.90
2016,11,20,02,52,16.10
2016,11,20,02,53,19.30
2016,11,20,02,54,24.20
2016,11,20,02,55,22.50
2016,11,20,02,56,20.90
2016,11,20,02,57,14.50
2016,11,20,02,58,17.70
2016,11,20,02,59,17.70
2016,11,20,03,00,16.10
2016,11,20,03,01,22.50
2016,11,20,03,02,22.50
2016,11,20,03,03,20.90
2016,11,20,03,04,14.50
2016,11,20,03,05,11.30
2016,11,20,03,06,16.10
2016,11,20,03,07,17.70
2016,11,20,03,08,24.20
2016,11,20,03,09,25.70
2016,11,20,03,10,25.70
2016,11,20,03,11,29.00
2016,11,20,03,12,20.90
2016,11,20,03,13,24.20
2016,11,20,03,14,19.30
2016,11,20,03,15,17.70
2016,11,20,03,16,19.30
2016,11,20,03,17,24.20
2016,11,20,03,18,16.10
2016,11,20,03,19,19.30
2016,11,20,03,20,17.70
2016,11,20,03,21,19.30
2016,11,20,03,22,22.50
2016,11,20,03,23,17.70
2016,11,20,03,24,16.10
2016,11,20,03,25,16.10
2016,11,20,03,26,25.70
2016,11,20,03,27,27.40
2016,11,20,03,28,20.90
2016,11,20,03,29,20.90
2016,11,20,03,30,19.30
2016,11,20,03,31,16.10
2016,11,20,03,32,16.10
2016,11,20,03,33,20.90
2016,11,20,03,34,17.70
2016,11,20,03,35,19.30
2016,11,20,03,36,20.90
2016,11,20,03,37,19.30
2016,11,20,03,38,16.10
2016,11,20,03,39,16.10
2016,11,20,03,40,17.70
2016,11,20,03,41,19.30
2016,11,20,03,42,14.50
2016,11,20,03,43,20.90
2016,11,20,03,44,16.10
2016,11,20,03,45,24.20
2016,11,20,03,46,24.20
2016,11,20,03,47,33.80
2016,11,20,03,48,29.00
2016,11,20,03,49,19.30
2016,11,20,03,50,25.70
2016,11,20,03,51,22.50
2016,11,20,03,52,22.50
2016,11,20,03,53,20.90
2016,11,20,03,54,19.30
2016,11,20,03,55,16.10
2016,11,20,03,56,25.70
2016,11,20,03,57,16.10
2016,11,20,03,58,16.10
2016,11,20,03,59,19.30
2016,11,20,04,00,19.30
2016,11,20,04,01,22.50
2016,11,20,04,02,22.50
2016,11,20,04,03,14.50
2016,11,20,04,04,25.70
2016,11,20,04,05,19.30
2016,11,20,04,06,25.70
2016,11,20,04,07,17.70
2016,11,20,04,08,25.70
2016,11,20,04,09,25.70
2016,11,20,04,10,22.50
2016,11,20,04,11,20.90
2016,11,20,04,12,20.90
2016,11,20,04,13,16.10
2016,11,20,04,14,17.70
2016,11,20,04,15,20.90
2016,11,20,04,16,20.90
2016,11,20,04,17,20.90
2016,11,20,04,18,19.30
2016,11,20,04,19,17.70
2016,11,20,04,20,19.30
2016,11,20,04,21,24.20
2016,11,20,04,22,19.30
2016,11,20,04,23,20.90
2016,11,20,04,24,27.40
2016,11,20,04,25,22.50
2016,11,20,04,26,22.50
2016,11,20,04,27,24.20
2016,11,20,04,28,19.30
2016,11,20,04,29,20.90
2016,11,20,04,30,16.10
2016,11,20,04,31,17.70
2016,11,20,04,32,27.40
2016,11,20,04,33,20.90
2016,11,20,04,34,19.30
2016,11,20,04,35,27.40
2016,11,20,04,36,25.70
2016,11,20,04,37,29.00
2016,11,20,04,38,25.70
2016,11,20,04,39,24.20
2016,11,20,04,40,24.20
2016,11,20,04,41,24.20
2016,11,20,04,42,22.50
2016,11,20,04,43,22.50
2016,11,20,04,44,25.70
2016,11,20,04,45,24.20
2016,11,20,04,46,24.20
2016,11,20,04,47,17.70
2016,11,20,04,48,22.50
2016,11,20,04,49,25.70
2016,11,20,04,50,24.20
2016,11,20,04,51,22.50
2016,11,20,04,52,24.20
2016,11,20,04,53,24.20
2016,11,20,04,54,22.50
2016,11,20,04,55,19.30
2016,11,20,04,56,24.20
2016,11,20,04,57,32.20
2016,11,20,04,58,30.60
2016,11,20,04,59,20.90
2016,11,20,05,00,25.70
2016,11,20,05,01,25.70
2016,11,20,05,02,12.90
2016,11,20,05,03,19.30
2016,11,20,05,04,17.70
2016,11,20,05,05,14.50
2016,11,20,05,06,12.90
2016,11,20,05,07,16.10
2016,11,20,05,08,20.90
2016,11,20,05,09,22.50
2016,11,20,05,10,25.70
2016,11,20,05,11,19.30
2016,11,20,05,12,19.30
2016,11,20,05,13,22.50
2016,11,20,05,14,17.70
2016,11,20,05,15,17.70
2016,11,20,05,16,20.90
2016,11,20,05,17,16.10
2016,11,20,05,18,24.20
2016,11,20,05,19,19.30
2016,11,20,05,20,20.90
2016,11,20,05,21,17.70
2016,11,20,05,22,19.30
2016,11,20,05,23,19.30
2016,11,20,05,24,29.00
2016,11,20,05,25,20.90
2016,11,20,05,26,20.90
2016,11,20,05,27,17.70
2016,11,20,05,28,16.10
2016,11,20,05,29,19.30
2016,11,20,05,30,16.10
2016,11,20,05,31,16.10
2016,11,20,05,32,19.30
2016,11,20,05,33,14.50
2016,11,20,05,34,19.30
2016,11,20,05,35,16.10
2016,11,20,05,36,19.30
2016,11,20,05,37,17.70
2016,11,20,05,38,11.30
2016,11,20,05,39,12.90
2016,11,20,05,40,12.90
2016,11,20,05,41,12.90
2016,11,20,05,42,12.90
2016,11,20,05,43,12.90
2016,11,20,05,44,19.30
2016,11,20,05,45,14.50
2016,11,20,05,46,16.10
2016,11,20,05,47,19.30
2016,11,20,05,48,19.30
2016,11,20,05,49,24.20
2016,11,20,05,50,20.90
2016,11,20,05,51,20.90
2016,11,20,05,52,14.50
2016,11,20,05,53,17.70
2016,11,20,05,54,30.60
2016,11,20,05,55,27.40
2016,11,20,05,56,20.90
2016,11,20,05,57,19.30
2016,11,20,05,58,14.50
2016,11,20,05,59,17.70
2016,11,20,06,00,19.30
2016,11,20,06,01,19.30
2016,11,20,06,02,22.50
2016,11,20,06,03,22.50
2016,11,20,06,04,24.20
2016,11,20,06,05,20.90
2016,11,20,06,06,19.30
2016,11,20,06,07,22.50
2016,11,20,06,08,16.10
2016,11,20,06,09,19.30
2016,11,20,06,10,25.70
2016,11,20,06,11,22.50
2016,11,20,06,12,24.20
2016,11,20,06,13,22.50
2016,11,20,06,14,22.50
2016,11,20,06,15,20.90
2016,11,20,06,16,25.70
2016,11,20,06,17,17.70
2016,11,20,06,18,17.70
2016,11,20,06,19,24.20
2016,11,20,06,20,17.70
2016,11,20,06,21,22.50
2016,11,20,06,22,19.30
2016,11,20,06,23,20.90
2016,11,20,06,24,20.90
2016,11,20,06,25,24.20
2016,11,20,06,26,19.30
2016,11,20,06,27,20.90
2016,11,20,06,28,25.70
2016,11,20,06,29,22.50
2016,11,20,06,30,20.90
2016,11,20,06,31,24.20
2016,11,20,06,32,25.70
2016,11,20,06,33,25.70
2016,11,20,06,34,29.00
2016,11,20,06,35,27.40
2016,11,20,06,36,32.20
2016,11,20,06,37,25.70
2016,11,20,06,38,29.00
2016,11,20,06,39,24.20
2016,11,20,06,40,25.70
2016,11,20,06,41,25.70
2016,11,20,06,42,27.40
2016,11,20,06,43,27.40
2016,11,20,06,44,24.20
2016,11,20,06,45,24.20
2016,11,20,06,46,22.50
2016,11,20,06,47,24.20
2016,11,20,06,48,29.00
2016,11,20,06,49,30.60
2016,11,20,06,50,25.70
2016,11,20,06,51,29.00
2016,11,20,06,52,24.20
2016,11,20,06,53,32.20
2016,11,20,06,54,25.70
2016,11,20,06,55,24.20
2016,11,20,06,56,24.20
2016,11,20,06,57,22.50
2016,11,20,06,58,20.90
2016,11,20,06,59,29.00
2016,11,20,07,00,17.70
2016,11,20,07,01,24.20
2016,11,20,07,02,27.40
2016,11,20,07,03,22.50
2016,11,20,07,04,24.20
2016,11,20,07,05,24.20
2016,11,20,07,06,24.20
2016,11,20,07,07,20.90
2016,11,20,07,08,22.50
2016,11,20,07,09,27.40
2016,11,20,07,10,24.20
2016,11,20,07,11,22.50
2016,11,20,07,12,20.90
2016,11,20,07,13,17.70
2016,11,20,07,14,25.70
2016,11,20,07,15,20.90
2016,11,20,07,16,24.20
2016,11,20,07,17,22.50
2016,11,20,07,18,22.50
2016,11,20,07,19,20.90
2016,11,20,07,20,20.90
2016,11,20,07,21,20.90
2016,11,20,07,22,25.70
2016,11,20,07,23,22.50
2016,11,20,07,24,29.00
2016,11,20,07,25,29.00
2016,11,20,07,26,22.50
2016,11,20,07,27,35.40
2016,11,20,07,28,25.70
2016,11,20,07,29,29.00
2016,11,20,07,30,27.40
2016,11,20,07,31,35.40
2016,11,20,07,32,37.00
2016,11,20,07,33,41.80
2016,11,20,07,34,37.00
2016,11,20,07,35,32.20
2016,11,20,07,36,32.20
2016,11,20,07,37,33.80
2016,11,20,07,38,33.80
2016,11,20,07,39,25.70
2016,11,20,07,40,27.40
2016,11,20,07,41,35.40
2016,11,20,07,42,43.50
2016,11,20,07,43,37.00
2016,11,20,07,44,29.00
2016,11,20,07,45,30.60
2016,11,20,07,46,24.20
2016,11,20,07,47,35.40
2016,11,20,07,48,30.60
2016,11,20,07,49,27.40
2016,11,20,07,50,33.80
2016,11,20,07,51,25.70
2016,11,20,07,52,25.70
2016,11,20,07,53,27.40
2016,11,20,07,54,30.60
2016,11,20,07,55,27.40
2016,11,20,07,56,30.60
2016,11,20,07,57,33.80
2016,11,20,07,58,29.00
2016,11,20,07,59,37.00
2016,11,20,08,00,29.00
2016,11,20,08,01,27.40
2016,11,20,08,02,33.80
2016,11,20,08,03,29.00
2016,11,20,08,04,33.80
2016,11,20,08,05,27.40
2016,11,20,08,06,22.50
2016,11,20,08,07,25.70
2016,11,20,08,08,20.90
2016,11,20,08,09,37.00
2016,11,20,08,10,30.60
2016,11,20,08,11,25.70
2016,11,20,08,12,22.50
2016,11,20,08,13,24.20
2016,11,20,08,14,20.90
2016,11,20,08,15,24.20
2016,11,20,08,16,27.40
2016,11,20,08,17,20.90
2016,11,20,08,18,20.90
2016,11,20,08,19,37.00
2016,11,20,08,20,25.70
2016,11,20,08,21,30.60
2016,11,20,08,22,24.20
2016,11,20,08,23,20.90
2016,11,20,08,24,32.20
2016,11,20,08,25,22.50
2016,11,20,08,26,22.50
2016,11,20,08,27,24.20
2016,11,20,08,28,24.20
2016,11,20,08,29,35.40
2016,11,20,08,30,32.20
2016,11,20,08,31,40.20
2016,11,20,08,32,27.40
2016,11,20,08,33,20.90
2016,11,20,08,34,20.90
2016,11,20,08,35,25.70
2016,11,20,08,36,32.20
2016,11,20,08,37,17.70
2016,11,20,08,38,20.90
2016,11,20,08,39,30.60
2016,11,20,08,40,27.40
2016,11,20,08,41,24.20
2016,11,20,08,42,25.70
2016,11,20,08,43,20.90
2016,11,20,08,44,22.50
2016,11,20,08,45,22.50
2016,11,20,08,46,29.00
2016,11,20,08,47,25.70
2016,11,20,08,48,22.50
2016,11,20,08,49,17.70
2016,11,20,08,50,22.50
2016,11,20,08,51,19.30
2016,11,20,08,52,25.70
2016,11,20,08,53,22.50
2016,11,20,08,54,25.70
2016,11,20,08,55,24.20
2016,11,20,08,56,25.70
2016,11,20,08,57,29.00
2016,11,20,08,58,25.70
2016,11,20,08,59,29.00
2016,11,20,09,00,27.40
2016,11,20,09,01,22.50
2016,11,20,09,02,24.20
2016,11,20,09,03,22.50
2016,11,20,09,04,20.90
2016,11,20,09,05,24.20
2016,11,20,09,06,22.50
2016,11,20,09,07,32.20
2016,11,20,09,08,29.00
2016,11,20,09,09,35.40
2016,11,20,09,10,27.40
2016,11,20,09,11,30.60
2016,11,20,09,12,24.20
2016,11,20,09,13,27.40
2016,11,20,09,14,25.70
2016,11,20,09,15,32.20
2016,11,20,09,16,29.00
2016,11,20,09,17,27.40
2016,11,20,09,18,30.60
2016,11,20,09,19,29.00
2016,11,20,09,20,32.20
2016,11,20,09,21,35.40
2016,11,20,09,22,30.60
2016,11,20,09,23,41.80
2016,11,20,09,24,33.80
2016,11,20,09,25,25.70
2016,11,20,09,26,40.20
2016,11,20,09,27,40.20
2016,11,20,09,28,25.70
2016,11,20,09,29,38.60
2016,11,20,09,30,40.20
2016,11,20,09,31,40.20
2016,11,20,09,32,30.60
2016,11,20,09,33,30.60
2016,11,20,09,34,32.20
2016,11,20,09,35,32.20
2016,11,20,09,36,33.80
2016,11,20,09,37,29.00
2016,11,20,09,38,25.70
2016,11,20,09,39,35.40
2016,11,20,09,40,27.40
2016,11,20,09,41,30.60
2016,11,20,09,42,35.40
2016,11,20,09,43,30.60
2016,11,20,09,44,40.20
2016,11,20,09,45,38.60
2016,11,20,09,46,38.60
2016,11,20,09,47,27.40
2016,11,20,09,48,33.80
2016,11,20,09,49,27.40
2016,11,20,09,50,27.40
2016,11,20,09,51,43.50
2016,11,20,09,52,38.60
2016,11,20,09,53,32.20
2016,11,20,09,54,25.70
2016,11,20,09,55,27.40
2016,11,20,09,56,32.20
2016,11,20,09,57,27.40
2016,11,20,09,58,35.40
2016,11,20,09,59,27.40
2016,11,20,10,00,22.50
2016,11,20,10,01,27.40
2016,11,20,10,02,29.00
2016,11,20,10,03,27.40
2016,11,20,10,04,37.00
2016,11,20,10,05,33.80
2016,11,20,10,06,25.70
2016,11,20,10,07,29.00
2016,11,20,10,08,30.60
2016,11,20,10,09,27.40
2016,11,20,10,10,29.00
2016,11,20,10,11,25.70
2016,11,20,10,12,30.60
2016,11,20,10,13,32.20
2016,11,20,10,14,27.40
2016,11,20,10,15,29.00
2016,11,20,10,16,29.00
2016,11,20,10,17,32.20
2016,11,20,10,18,29.00
2016,11,20,10,19,27.40
2016,11,20,10,20,22.50
2016,11,20,10,21,20.90
2016,11,20,10,22,33.80
2016,11,20,10,23,29.00
2016,11,20,10,24,29.00
2016,11,20,10,25,30.60
2016,11,20,10,26,19.30
2016,11,20,10,27,24.20
2016,11,20,10,28,29.00
2016,11,20,10,29,24.20
2016,11,20,10,30,25.70
2016,11,20,10,31,24.20
2016,11,20,10,32,29.00
2016,11,20,10,33,24.20
2016,11,20,10,34,30.60
2016,11,20,10,35,30.60
2016,11,20,10,36,25.70
2016,11,20,10,37,33.80
2016,11,20,10,38,37.00
2016,11,20,10,39,27.40
2016,11,20,10,40,25.70
2016,11,20,10,41,32.20
2016,11,20,10,42,27.40
2016,11,20,10,43,35.40
2016,11,20,10,44,33.80
2016,11,20,10,45,30.60
2016,11,20,10,46,32.20
2016,11,20,10,47,35.40
2016,11,20,10,48,41.80
2016,11,20,10,49,38.60
2016,11,20,10,50,45.10
2016,11,20,10,51,37.00
2016,11,20,10,52,32.20
2016,11,20,10,53,27.40
2016,11,20,10,54,37.00
2016,11,20,10,55,35.40
2016,11,20,10,56,33.80
2016,11,20,10,57,40.20
2016,11,20,10,58,32.20
2016,11,20,10,59,45.10
2016,11,20,11,00,35.40
2016,11,20,11,01,33.80
2016,11,20,11,02,38.60
2016,11,20,11,03,35.40
2016,11,20,11,04,35.40
2016,11,20,11,05,33.80
2016,11,20,11,06,37.00
2016,11,20,11,07,35.40
2016,11,20,11,08,40.20
2016,11,20,11,09,35.40
2016,11,20,11,10,30.60
2016,11,20,11,11,24.20
2016,11,20,11,12,32.20
2016,11,20,11,13,27.40
2016,11,20,11,14,33.80
2016,11,20,11,15,41.80
2016,11,20,11,16,30.60
2016,11,20,11,17,40.20
2016,11,20,11,18,37.00
2016,11,20,11,19,30.60
2016,11,20,11,20,25.70
2016,11,20,11,21,32.20
2016,11,20,11,22,40.20
2016,11,20,11,23,27.40
2016,11,20,11,24,40.20
2016,11,20,11,25,33.80
2016,11,20,11,26,29.00
2016,11,20,11,27,38.60
2016,11,20,11,28,37.00
2016,11,20,11,29,43.50
2016,11,20,11,30,37.00
2016,11,20,11,31,38.60
2016,11,20,11,32,45.10
2016,11,20,11,33,41.80
2016,11,20,11,34,43.50
2016,11,20,11,35,45.10
2016,11,20,11,36,38.60
2016,11,20,11,37,29.00
2016,11,20,11,38,30.60
2016,11,20,11,39,37.00
2016,11,20,11,40,37.00
2016,11,20,11,41,29.00
2016,11,20,11,42,27.40
2016,11,20,11,43,29.00
2016,11,20,11,44,30.60
2016,11,20,11,45,37.00
2016,11,20,11,46,38.60
2016,11,20,11,47,33.80
2016,11,20,11,48,38.60
2016,11,20,11,49,37.00
2016,11,20,11,50,48.30
2016,11,20,11,51,38.60
2016,11,20,11,52,45.10
2016,11,20,11,53,35.40
2016,11,20,11,54,41.80
2016,11,20,11,55,32.20
2016,11,20,11,56,33.80
2016,11,20,11,57,30.60
2016,11,20,11,58,37.00
2016,11,20,11,59,25.70
2016,11,20,12,00,38.60
2016,11,20,12,01,32.20
2016,11,20,12,02,32.20
2016,11,20,12,03,32.20
2016,11,20,12,04,40.20
2016,11,20,12,05,40.20
2016,11,20,12,06,40.20
2016,11,20,12,07,32.20
2016,11,20,12,08,30.60
2016,11,20,12,09,37.00
2016,11,20,12,10,30.60
2016,11,20,12,11,30.60
2016,11,20,12,12,35.40
2016,11,20,12,13,32.20
2016,11,20,12,14,32.20
2016,11,20,12,15,48.30
2016,11,20,12,16,35.40
2016,11,20,12,17,45.10
2016,11,20,12,18,48.30
2016,11,20,12,19,43.50
2016,11,20,12,20,40.20
2016,11,20,12,21,33.80
2016,11,20,12,22,45.10
2016,11,20,12,23,35.40
2016,11,20,12,24,32.20
2016,11,20,12,25,33.80
2016,11,20,12,26,43.50
2016,11,20,12,27,30.60
2016,11,20,12,28,30.60
2016,11,20,12,29,33.80
2016,11,20,12,30,22.50
2016,11,20,12,31,20.90
2016,11,20,12,32,24.20
2016,11,20,12,33,19.30
2016,11,20,12,34,24.20
2016,11,20,12,35,27.40
2016,11,20,12,36,25.70
2016,11,20,12,37,20.90
2016,11,20,12,38,22.50
2016,11,20,12,39,24.20
2016,11,20,12,40,24.20
2016,11,20,12,41,22.50
2016,11,20,12,42,27.40
2016,11,20,12,43,25.70
2016,11,20,12,44,29.00
2016,11,20,12,45,30.60
2016,11,20,12,46,30.60
2016,11,20,12,47,29.00
2016,11,20,12,48,22.50
2016,11,20,12,49,22.50
2016,11,20,12,50,22.50
2016,11,20,12,51,22.50
2016,11,20,12,52,29.00
2016,11,20,12,53,25.70
2016,11,20,12,54,29.00
2016,11,20,12,55,22.50
2016,11,20,12,56,25.70
2016,11,20,12,57,24.20
2016,11,20,12,58,24.20
2016,11,20,12,59,19.30
2016,11,20,13,00,19.30
2016,11,20,13,01,22.50
2016,11,20,13,02,24.20
2016,11,20,13,03,16.10
2016,11,20,13,04,20.90
2016,11,20,13,05,20.90
2016,11,20,13,06,19.30
2016,11,20,13,07,20.90
2016,11,20,13,08,24.20
2016,11,20,13,09,37.00
2016,11,20,13,10,27.40
2016,11,20,13,11,29.00
2016,11,20,13,12,29.00
2016,11,20,13,13,27.40
2016,11,20,13,14,24.20
2016,11,20,13,15,22.50
2016,11,20,13,16,22.50
2016,11,20,13,17,17.70
2016,11,20,13,18,38.60
2016,11,20,13,19,29.00
2016,11,20,13,20,20.90
2016,11,20,13,21,22.50
2016,11,20,13,22,25.70
2016,11,20,13,23,19.30
2016,11,20,13,24,25.70
2016,11,20,13,25,25.70
2016,11,20,13,26,33.80
2016,11,20,13,27,41.80
2016,11,20,13,28,25.70
2016,11,20,13,29,37.00
2016,11,20,13,30,27.40
2016,11,20,13,31,27.40
2016,11,20,13,32,19.30
2016,11,20,13,33,29.00
2016,11,20,13,34,27.40
2016,11,20,13,35,24.20
2016,11,20,13,36,16.10
2016,11,20,13,37,30.60
2016,11,20,13,38,20.90
2016,11,20,13,39,27.40
2016,11,20,13,40,20.90
2016,11,20,13,41,25.70
2016,11,20,13,42,22.50
2016,11,20,13,43,29.00
2016,11,20,13,44,32.20
2016,11,20,13,45,25.70
2016,11,20,13,46,24.20
2016,11,20,13,47,32.20
2016,11,20,13,48,25.70
2016,11,20,13,49,25.70
2016,11,20,13,50,22.50
2016,11,20,13,51,24.20
2016,11,20,13,52,27.40
2016,11,20,13,53,24.20
2016,11,20,13,54,22.50
2016,11,20,13,55,38.60
2016,11,20,13,56,38.60
2016,11,20,13,57,24.20
2016,11,20,13,58,25.70
2016,11,20,13,59,24.20
2016,11,20,14,00,24.20
2016,11,20,14,01,16.10
2016,11,20,14,02,29.00
2016,11,20,14,03,20.90
2016,11,20,14,04,20.90
2016,11,20,14,05,20.90
2016,11,20,14,06,25.70
2016,11,20,14,07,22.50
2016,11,20,14,08,22.50
2016,11,20,14,09,30.60
2016,11,20,14,10,30.60
2016,11,20,14,11,30.60
2016,11,20,14,12,35.40
2016,11,20,14,13,30.60
2016,11,20,14,14,29.00
2016,11,20,14,15,33.80
2016,11,20,14,16,25.70
2016,11,20,14,17,25.70
2016,11,20,14,18,37.00
2016,11,20,14,19,25.70
2016,11,20,14,20,33.80
2016,11,20,14,21,38.60
2016,11,20,14,22,33.80
2016,11,20,14,23,33.80
2016,11,20,14,24,37.00
2016,11,20,14,25,38.60
2016,11,20,14,26,27.40
2016,11,20,14,27,35.40
2016,11,20,14,28,32.20
2016,11,20,14,29,43.50
2016,11,20,14,30,41.80
2016,11,20,14,31,41.80
2016,11,20,14,32,33.80
2016,11,20,14,33,40.20
2016,11,20,14,34,38.60
2016,11,20,14,35,35.40
2016,11,20,14,36,33.80
2016,11,20,14,37,41.80
2016,11,20,14,38,33.80
2016,11,20,14,39,30.60
2016,11,20,14,40,29.00
2016,11,20,14,41,29.00
2016,11,20,14,42,37.00
2016,11,20,14,43,33.80
2016,11,20,14,44,33.80
2016,11,20,14,45,30.60
2016,11,20,14,46,37.00
2016,11,20,14,47,25.70
2016,11,20,14,48,24.20
2016,11,20,14,49,20.90
2016,11,20,14,50,24.20
2016,11,20,14,51,19.30
2016,11,20,14,52,20.90
2016,11,20,14,53,22.50
2016,11,20,14,54,30.60
2016,11,20,14,55,24.20
2016,11,20,14,56,17.70
2016,11,20,14,57,20.90
2016,11,20,14,58,17.70
2016,11,20,14,59,22.50
2016,11,20,15,00,20.90
2016,11,20,15,01,30.60
2016,11,20,15,02,24.20
2016,11,20,15,03,24.20
2016,11,20,15,04,22.50
2016,11,20,15,05,25.70
2016,11,20,15,06,27.40
2016,11,20,15,07,22.50
2016,11,20,15,08,32.20
2016,11,20,15,09,25.70
2016,11,20,15,10,27.40
2016,11,20,15,11,35.40
2016,11,20,15,12,29.00
2016,11,20,15,13,33.80
2016,11,20,15,14,40.20
2016,11,20,15,15,41.80
2016,11,20,15,16,43.50
2016,11,20,15,17,35.40
2016,11,20,15,18,30.60
2016,11,20,15,19,33.80
2016,11,20,15,20,37.00
2016,11,20,15,21,43.50
2016,11,20,15,22,29.00
2016,11,20,15,23,29.00
2016,11,20,15,24,37.00
2016,11,20,15,25,35.40
2016,11,20,15,26,27.40
2016,11,20,15,27,37.00
2016,11,20,15,28,30.60
2016,11,20,15,29,40.20
2016,11,20,15,30,30.60
2016,11,20,15,31,29.00
2016,11,20,15,32,33.80
2016,11,20,15,33,32.20
2016,11,20,15,34,33.80
2016,11,20,15,35,27.40
2016,11,20,15,36,32.20
2016,11,20,15,37,33.80
2016,11,20,15,38,27.40
2016,11,20,15,39,27.40
2016,11,20,15,40,19.30
2016,11,20,15,41,17.70
2016,11,20,15,42,25.70
2016,11,20,15,43,20.90
2016,11,20,15,44,24.20
2016,11,20,15,45,27.40
2016,11,20,15,46,24.20
2016,11,20,15,47,19.30
2016,11,20,15,48,20.90
2016,11,20,15,49,19.30
2016,11,20,15,50,17.70
2016,11,20,15,51,25.70
2016,11,20,15,52,20.90
2016,11,20,15,53,19.30
2016,11,20,15,54,12.90
2016,11,20,15,55,20.90
2016,11,20,15,56,22.50
2016,11,20,15,57,17.70
2016,11,20,15,58,14.50
2016,11,20,15,59,24.20
2016,11,20,16,00,29.00
2016,11,20,16,01,22.50
2016,11,20,16,02,35.40
2016,11,20,16,03,24.20
2016,11,20,16,04,27.40
2016,11,20,16,05,25.70
2016,11,20,16,06,24.20
2016,11,20,16,07,19.30
2016,11,20,16,08,30.60
2016,11,20,16,09,24.20
2016,11,20,16,10,24.20
2016,11,20,16,11,29.00
2016,11,20,16,12,16.10
2016,11,20,16,13,27.40
2016,11,20,16,14,25.70
2016,11,20,16,15,16.10
2016,11,20,16,16,19.30
2016,11,20,16,17,25.70
2016,11,20,16,18,25.70
2016,11,20,16,19,22.50
2016,11,20,16,20,22.50
2016,11,20,16,21,20.90
2016,11,20,16,22,27.40
2016,11,20,16,23,29.00
2016,11,20,16,24,24.20
2016,11,20,16,25,25.70
2016,11,20,16,26,25.70
2016,11,20,16,27,22.50
2016,11,20,16,28,22.50
2016,11,20,16,29,30.60
2016,11,20,16,30,19.30
2016,11,20,16,31,24.20
2016,11,20,16,32,29.00
2016,11,20,16,33,20.90
2016,11,20,16,34,17.70
2016,11,20,16,35,19.30
2016,11,20,16,36,27.40
2016,11,20,16,37,24.20
2016,11,20,16,38,22.50
2016,11,20,16,39,29.00
2016,11,20,16,40,24.20
2016,11,20,16,41,24.20
2016,11,20,16,42,20.90
2016,11,20,16,43,22.50
2016,11,20,16,44,20.90
2016,11,20,16,45,33.80
2016,11,20,16,46,19.30
2016,11,20,16,47,19.30
2016,11,20,16,48,25.70
2016,11,20,16,49,27.40
2016,11,20,16,50,33.80
2016,11,20,16,51,19.30
2016,11,20,16,52,27.40
2016,11,20,16,53,29.00
2016,11,20,16,54,22.50
2016,11,20,16,55,30.60
2016,11,20,16,56,35.40
2016,11,20,16,57,25.70
2016,11,20,16,58,30.60
2016,11,20,16,59,40.20
2016,11,20,17,00,22.50
2016,11,20,17,01,25.70
2016,11,20,17,02,27.40
2016,11,20,17,03,27.40
2016,11,20,17,04,33.80
2016,11,20,17,05,32.20
2016,11,20,17,06,37.00
2016,11,20,17,07,25.70
2016,11,20,17,08,38.60
2016,11,20,17,09,27.40
2016,11,20,17,10,14.50
2016,11,20,17,11,27.40
2016,11,20,17,12,33.80
2016,11,20,17,13,27.40
2016,11,20,17,14,35.40
2016,11,20,17,15,38.60
2016,11,20,17,16,37.00
2016,11,20,17,17,38.60
2016,11,20,17,18,38.60
2016,11,20,17,19,40.20
2016,11,20,17,20,32.20
2016,11,20,17,21,30.60
2016,11,20,17,22,30.60